EST,Max TemperatureF,Mean TemperatureF,Min TemperatureF,Max Dew PointF,MeanDew PointF,Min DewpointF,Max Humidity, Mean Humidity, Min Humidity, Max Sea Level PressureIn, Mean Sea Level PressureIn, Min Sea Level PressureIn, Max VisibilityMiles, Mean VisibilityMiles, Min VisibilityMiles, Max Wind SpeedMPH, Mean Wind SpeedMPH, Max Gust SpeedMPH,PrecipitationIn, CloudCover, Events, WindDirDegrees
2013-11-1,64,57,49,55,47,41,93,70,46,29.76,29.65,29.47,10,10,10,25,10,35,T,5,Rain,242
2013-11-2,58,49,40,42,39,34,96,72,47,30.10,29.88,29.75,10,10,10,22,9,26,0.00,5,,276
2013-11-3,57,48,38,41,36,33,100,75,50,30.35,30.26,30.10,10,10,6,10,4,12,0.00,4,,40
2013-11-4,59,49,38,43,38,33,92,72,51,30.41,30.35,30.30,10,10,10,15,8,18,0.00,7,,142
2013-11-5,62,56,49,44,42,37,77,63,49,30.40,30.33,30.22,10,10,10,14,6,16,T,7,Rain,156
2013-11-6,66,56,45,61,52,36,100,75,50,30.21,30.05,29.99,10,8,2,24,11,36,0.40,7,Rain,220
2013-11-7,49,43,37,43,33,23,100,70,39,30.27,30.19,30.07,10,10,7,17,10,23,0.04,4,Rain,295
2013-11-8,53,41,28,32,28,24,100,68,36,30.39,30.30,30.23,10,9,5,21,6,26,0.00,2,,259
2013-11-9,61,48,35,38,31,26,70,52,33,30.24,30.13,30.05,10,10,10,21,10,28,0.00,1,,211
2013-11-10,52,41,29,40,30,24,85,61,36,30.36,30.27,30.12,10,10,9,23,10,28,0.00,0,,295
2013-11-11,60,44,27,43,31,21,92,58,24,30.31,30.21,30.10,10,9,4,25,8,31,0.06,6,Rain-Snow,252
2013-11-12,37,32,26,34,24,19,96,74,52,30.63,30.48,30.26,10,8,1,25,12,33,0.07,5,Snow,346
2013-11-13,40,30,19,22,19,14,92,65,37,30.66,30.57,30.42,10,10,6,13,6,16,0.00,1,,240
2013-11-14,53,41,28,22,19,16,69,47,24,30.40,30.28,30.17,10,10,10,18,10,26,0.00,3,,201
2013-11-15,53,44,35,44,29,19,93,66,38,30.19,30.15,30.11,10,10,9,16,8,22,0.03,7,Rain,193
2013-11-16,61,54,47,55,50,44,100,90,80,30.13,30.04,29.92,10,8,1,22,11,28,0.00,8,,169
2013-11-17,66,58,50,63,57,40,100,80,59,29.90,29.70,29.54,10,8,2,46,16,59,1.28,7,Rain,201
2013-11-18,53,45,37,39,33,27,82,62,41,30.20,30.03,29.85,10,10,10,28,14,35,0.00,0,,276
2013-11-19,42,36,30,28,27,25,85,70,55,30.35,30.31,30.21,10,10,10,16,7,22,0.00,3,,41
2013-11-20,51,40,29,31,28,24,78,61,44,30.33,30.28,30.23,10,10,10,13,8,16,0.00,4,,113
2013-11-21,55,49,42,50,39,31,93,75,56,30.32,30.25,30.20,10,10,6,14,6,17,0.05,8,Rain,161
2013-11-22,55,47,38,54,47,28,100,85,70,30.37,30.24,30.17,10,6,0,21,11,28,0.14,8,Rain,304
2013-11-23,40,32,24,29,21,12,92,66,40,30.57,30.43,30.36,10,10,9,26,12,32,T,6,,321
2013-11-24,29,22,15,15,10,6,73,60,46,30.71,30.61,30.54,10,10,8,20,4,24,T,3,Snow,340
2013-11-25,40,30,19,31,17,11,89,63,37,30.53,30.34,30.20,10,9,2,15,7,20,0.01,8,Snow,189
2013-11-26,35,33,31,31,30,27,100,88,75,30.22,30.06,29.92,10,4,1,16,5,20,0.09,8,Snow,330
2013-11-27,33,27,20,28,20,11,82,71,60,30.32,30.08,29.92,10,8,0,23,13,30,0.02,7,Snow,310
2013-11-28,35,26,16,19,14,11,88,66,43,30.46,30.38,30.30,10,10,10,20,6,24,0.00,2,,212
2013-11-29,41,30,18,22,19,14,91,68,44,30.63,30.57,30.47,10,10,9,8,4,12,0.00,2,,88
2013-11-30,51,39,26,28,25,21,81,60,38,30.50,30.35,30.18,10,10,8,13,7,20,0.00,2,,176